TimeEDT,TemperatureF,Dew PointF,Humidity,Sea Level PressureIn,VisibilityMPH,Wind Direction,Wind SpeedMPH,Gust SpeedMPH,PrecipitationIn,Events,Conditions,WindDirDegrees,DateUTC
12:54 AM,75.9,71.1,85,30.22,10.0,Calm,Calm,-,N/A,,Scattered Clouds,0,2013-07-15 04:54:00
1:54 AM,75.0,71.1,87,30.22,10.0,Calm,Calm,-,N/A,,Scattered Clouds,0,2013-07-15 05:54:00
2:54 AM,75.0,71.1,87,30.22,10.0,SSE,3.5,-,N/A,,Mostly Cloudy,150,2013-07-15 06:54:00
3:54 AM,73.9,71.1,91,30.23,9.0,Calm,Calm,-,N/A,,Mostly Cloudy,0,2013-07-15 07:54:00
4:54 AM,73.9,71.1,91,30.24,10.0,Calm,Calm,-,N/A,,Mostly Cloudy,0,2013-07-15 08:54:00
5:54 AM,73.0,71.1,93,30.25,7.0,Calm,Calm,-,N/A,,Scattered Clouds,0,2013-07-15 09:54:00
6:54 AM,75.0,71.1,87,30.26,7.0,Calm,Calm,-,N/A,,Scattered Clouds,0,2013-07-15 10:54:00
7:54 AM,80.1,71.1,74,30.27,10.0,Calm,Calm,-,N/A,,Scattered Clouds,0,2013-07-15 11:54:00
8:54 AM,82.0,69.1,65,30.27,10.0,NW,4.6,-,N/A,,Scattered Clouds,310,2013-07-15 12:54:00
9:54 AM,84.9,70.0,61,30.26,10.0,NNW,5.8,-,N/A,,Scattered Clouds,330,2013-07-15 13:54:00
10:54 AM,86.0,70.0,59,30.26,10.0,NNW,6.9,-,N/A,,Scattered Clouds,330,2013-07-15 14:54:00
11:54 AM,87.1,71.1,59,30.25,10.0,Variable,3.5,-,N/A,,Scattered Clouds,0,2013-07-15 15:54:00
12:54 PM,88.0,71.1,57,30.24,10.0,NNW,11.5,-,N/A,,Scattered Clouds,330,2013-07-15 16:54:00
1:54 PM,89.1,71.1,55,30.23,10.0,West,11.5,17.3,N/A,,Scattered Clouds,280,2013-07-15 17:54:00
2:54 PM,90.0,70.0,52,30.22,10.0,West,11.5,-,N/A,,Mostly Cloudy,280,2013-07-15 18:54:00
3:54 PM,90.0,69.1,50,30.21,10.0,WNW,12.7,-,N/A,,Scattered Clouds,300,2013-07-15 19:54:00
4:54 PM,88.0,68.0,51,30.21,10.0,NW,13.8,19.6,N/A,,Scattered Clouds,310,2013-07-15 20:54:00
5:54 PM,87.1,66.0,49,30.20,10.0,NW,9.2,-,N/A,,Scattered Clouds,310,2013-07-15 21:54:00
6:54 PM,86.0,63.0,46,30.20,10.0,WNW,8.1,-,N/A,,Scattered Clouds,300,2013-07-15 22:54:00
7:54 PM,82.9,63.0,51,30.20,10.0,NW,6.9,-,N/A,,Scattered Clouds,310,2013-07-15 23:54:00
8:54 PM,79.0,64.0,60,30.20,10.0,West,4.6,-,N/A,,Partly Cloudy,270,2013-07-16 00:54:00
9:54 PM,80.1,64.0,58,30.21,10.0,Calm,Calm,-,N/A,,Partly Cloudy,0,2013-07-16 01:54:00
10:54 PM,75.0,66.0,73,30.22,10.0,Calm,Calm,-,N/A,,Partly Cloudy,0,2013-07-16 02:54:00
11:54 PM,73.9,64.9,73,30.21,10.0,Calm,Calm,-,N/A,,Partly Cloudy,0,2013-07-16 03:54:00